Reflectivity
-20 -20 -20 -20 -20 -20 -20 -20 -20 -20 -20 -20 -20 -20 -20 -20 -20 -20 -20 -20 -20 -20 -20 -20 -20 -20 -20 -20 -20 -20 -20 -20
-20 -20 -20 -20 -20 -20 -20 -20 -20 -20 -20 -20 -20 -20 -20 -20 -20 -20 -20 -20 -20 -20 -20 -20 -20 -20 -20 -20 -20 -20 -20 -20
-20 -20 -20 -20 -20 -20 -20 -20 -20 -20 -20 -20 -20 -20 -20 -20 -20 -20 -20 -20 -20 -15 -20 -20 -20 -20 -20 -20 -20 -20 -20 -20
-20 -20 -20 -20 -20 -20 -20 -20 -20 -20 -20 -20 -20 -20 -20 -20 -20 -20 -20 -20 -20 -20 -20 -16 -19 -20 -20 -20 -20 -20 -20 -20
-20 -20 -20 -20 -20 -20 -20 -20 -20 -20 -20 -20 -20 -20 -20 -20 -20 -20 -20 -20 -20 -20 -20 -20 -18 -20 -20 -20 -20 -20 -20 -20
-20 -20 -20 -20 -20 -20 -20 -20 -20 -20 -20 -20 -20 -20 -20 -20 -20 -20 -20 -20 -20 -20 -20 -20 -9 -11 7 1 10 -11 -20 -20
-20 -20 -20 -20 -20 -20 -20 -20 -20 -20 -20 -20 -20 -20 -20 -20 -20 -20 -20 -20 -20 -20 -20 -20 -20 -20 -20 -4 -8 15 -12 -16
-20 -20 -20 -20 -20 -20 -20 -20 -20 -20 -20 -20 -20 -20 -20 -20 -20 -20 -20 -20 -20 -20 -20 -20 -20 -20 -20 -20 -18 -20 -11 4
-20 -20 -20 -20 -20 -20 -20 -20 -20 -20 -20 -20 -20 -20 -20 -20 -20 -20 -20 -20 -20 -20 -20 -20 -20 -20 -20 -20 -20 -20 -20 -18
-20 -20 -20 -20 -20 -20 -20 -20 -20 -20 -20 -20 -20 -20 -20 -20 -20 -20 -20 -20 -20 -20 -20 -20 -20 -20 -20 -20 -20 -20 -20 -20
-20 -20 -20 -20 -20 -20 -20 -20 -20 -20 -20 -20 -20 -20 -20 -20 -20 -20 -20 -20 -20 -20 -20 -20 -20 -20 -20 -20 -20 -20 -20 -20
-20 -20 -20 -20 -20 -20 -20 -20 -20 -20 -20 -20 -20 -20 -20 -20 -20 -20 -20 -20 -20 -20 -20 -16 -5 -20 -20 -20 -20 -20 -20 -20
-20 -20 -20 -20 -20 -20 -20 -20 -20 -20 -20 -20 -20 -20 -20 -20 -20 -20 -20 -20 -20 -20 -20 0 -7 -20 -20 -20 -20 -20 -20 -20
-20 -20 -20 -20 -20 -20 -20 -20 -20 -20 -20 -20 -20 -20 -20 -20 -14 -20 -20 -15 -20 -20 -9 -2 1 -20 9 4 -18 -20 -20 -20
-20 -20 -20 -20 -20 -20 -20 -20 -20 -20 -20 -20 -20 -20 -20 -20 -19 -20 -20 -3 1 -15 -18 -1 7 -2 7 14 9 -6 -20 -20
-20 -20 -20 -20 -20 -20 -20 -20 -20 -20 -20 -20 -20 -20 -20 -17 0 -20 -3 -3 -1 -5 1 -5 0 3 5 6 11 -3 15 0
-20 -20 -20 -20 -20 -20 -20 -20 -20 -20 -20 -20 -20 -20 -8 -20 -2 -20 -1 0 -0 0 3 9 6 7 5 3 13 4 -1 -20
-20 -20 -20 -20 -20 -20 -20 -20 -20 -20 -20 -20 -20 -20 -2 -20 2 -20 -1 -1 2 6 5 12 13 11 14 5 10 10 12 -20
-20 -20 -20 -20 -20 -20 -20 -20 -20 -20 -20 -20 -20 -20 -19 -5 -4 -8 -1 -3 4 4 12 9 13 7 8 11 11 3 18 16
-20 -20 -20 -20 -20 -20 -20 -20 -20 -20 -20 -20 -20 -20 -20 -20 -20 -19 -0 -18 5 -5 -0 6 19 15 2 -2 8 6 9 15
Wind_Speed
7 7 10 9 9 9 9 10 11 12 15 18 18 17 17 15 12 10 10 10 10 10 10 10 9 10 10 9 9 9 6 5
7 7 7 7 5 11 11 13 15 13 17 17 15 16 18 17 15 11 12 11 12 11 10 10 11 11 10 10 10 10 7 7
7 7 7 8 6 8 11 14 15 14 13 17 11 7 9 12 16 20 20 20 10 9 10 10 11 11 11 11 10 5 6 6
6 7 7 7 6 7 7 7 6 6 7 7 6 8 9 13 15 18 20 19 18 12 10 11 10 6 5 10 6 7 7 8
7 7 7 7 6 4 3 3 3 4 7 6 6 5 5 6 6 7 8 13 8 10 10 6 5 6 8 8 7 8 7 7
7 7 7 7 4 4 4 3 3 4 5 6 5 3 4 4 4 7 8 7 10 8 6 10 10 5 8 9 10 8 7 7
7 7 6 6 6 4 4 4 4 5 5 6 5 4 5 5 6 7 7 8 10 11 10 9 10 11 9 8 10 10 9 6
6 7 7 6 5 6 4 4 5 5 5 6 9 7 6 6 7 8 8 9 9 10 10 10 9 9 11 10 10 10 11 9
7 7 7 7 6 6 5 5 5 5 5 6 7 6 7 8 6 6 7 8 11 9 10 9 9 9 10 10 9 10 10 12
7 7 7 7 7 6 5 5 5 4 5 5 10 10 10 7 7 7 8 8 7 7 8 9 9 8 10 10 10 10 11 11
7 7 7 7 7 5 6 7 5 5 7 8 13 12 12 9 6 7 11 9 9 10 10 9 10 10 11 10 10 10 9 10
7 5 8 7 5 4 5 5 5 8 7 9 12 9 11 8 7 9 9 8 9 9 12 10 10 10 11 12 11 10 10 10
8 9 8 6 6 7 6 6 6 7 8 12 11 10 10 9 7 8 9 9 10 11 10 12 9 10 9 10 9 12 13 11
8 8 8 8 7 6 4 4 6 6 7 8 10 11 11 11 10 9 10 9 11 11 10 9 8 8 7 10 7 5 5 9
7 8 9 8 8 6 4 4 5 7 8 8 9 12 11 11 12 10 10 9 8 10 10 12 9 8 10 6 5 4 11 4
8 9 8 8 7 7 7 6 7 8 7 8 9 11 11 12 12 11 10 8 10 9 10 10 9 10 8 8 10 9 5 10
7 8 8 7 8 9 6 7 6 6 6 9 10 10 11 12 11 11 11 8 10 11 11 10 8 8 8 8 10 8 9 9
7 8 8 8 9 9 9 8 7 6 7 7 7 8 8 13 12 11 11 11 11 10 11 12 10 9 8 9 8 7 7 7
7 8 7 7 8 8 7 7 6 5 6 7 8 8 8 12 14 12 11 13 12 11 11 11 11 10 10 8 8 9 8 10
8 8 7 7 8 7 6 6 4 6 7 6 6 7 8 12 11 12 14 15 12 12 9 9 11 10 12 11 8 8 8 10
Wind_Direction
47 43 23 21 48 38 31 34 31 32 39 21 10 7 2 358 339 322 316 295 269 257 259 259 253 244 242 245 244 250 257 259
56 36 18 6 37 19 32 31 27 24 34 19 9 4 358 352 346 343 333 310 289 259 248 246 250 250 243 241 240 247 253 254
54 42 18 6 29 23 29 33 19 22 23 11 12 5 353 354 351 348 346 342 305 297 275 257 253 250 243 239 240 238 237 245
60 45 26 19 10 25 18 25 11 23 9 3 17 16 2 357 353 352 352 344 344 324 289 268 258 256 246 233 231 234 234 240
48 43 27 19 13 27 7 13 29 8 359 13 24 13 357 1 349 347 343 343 342 334 331 317 262 256 253 241 222 223 231 234
42 39 26 17 15 22 2 4 36 12 0 10 16 9 358 349 350 350 345 341 334 332 335 329 311 286 274 256 250 229 226 238
51 52 32 14 12 3 2 15 27 16 1 359 11 3 3 8 359 350 343 344 356 345 336 331 323 315 303 299 285 259 243 228
64 53 45 16 10 4 2 21 25 14 8 7 10 26 10 5 358 358 2 356 342 336 330 325 314 311 299 286 280 281 265 242
56 61 35 11 2 2 7 20 16 22 15 9 33 14 21 19 5 358 347 340 330 324 322 317 313 314 301 295 280 278 274 267
58 53 26 6 14 12 16 17 24 16 7 15 20 22 21 15 359 348 337 330 318 318 319 316 319 325 324 314 295 276 273 275
46 42 22 24 31 18 20 25 16 4 28 23 28 20 8 5 351 352 350 338 331 325 320 317 315 313 308 305 308 292 273 269
64 49 31 24 9 27 31 16 12 38 27 37 23 15 14 0 6 350 345 334 328 326 316 312 303 302 305 299 292 283 270 272
48 51 29 22 17 27 27 23 34 33 27 27 13 15 11 357 1 349 342 336 324 317 315 313 313 311 302 301 286 288 276 262
65 69 42 31 34 23 20 16 40 31 21 14 13 9 4 2 356 351 342 327 320 318 314 308 299 295 302 306 301 320 265 247
79 75 57 42 37 24 17 26 37 26 16 15 7 11 3 6 356 350 341 330 317 316 318 313 309 307 291 284 305 270 349 291
71 78 61 58 47 38 33 37 31 25 18 8 5 7 7 8 357 353 342 335 333 323 322 307 303 305 305 276 270 296 300 298
76 90 72 59 52 46 34 37 38 23 14 11 9 5 9 5 5 353 352 344 334 328 324 321 304 289 282 290 298 282 277 283
65 84 75 69 65 51 43 35 30 20 16 12 8 4 8 6 5 2 359 352 345 342 339 345 334 319 319 315 284 278 286 277
65 55 72 71 74 60 51 44 29 17 21 10 13 5 10 9 5 4 4 356 356 354 355 345 349 341 332 326 320 316 306 287
65 46 43 64 75 67 48 49 28 29 21 11 10 9 11 12 5 3 8 1 358 7 1 357 2 354 357 348 330 323 318 318